Theta_e
329 327 326 325 324 324 324 322 322 323 326 326 327 326 327 328 331 332 332 331 330 330 329 329 329 328 326 326 326 325 326 325 326 326 326 325 325 323 323 324 324 323 322
322 321 321 320 319 319 318 317 316 316 316 316 316 316 316 316 316 320 324 327 327 327 327 327 326 326 326 326 326 326 325 324 324 325 325 324 323 323 321 322 322 322 321
320 318 317 317 316 315 315 315 314 313 313 313 313 313 313 313 313 313 313 313 313 314 314 315 317 318 319 319 320 320 321 321 323 324 324 324 324 323 321 321 320 321 321
317 315 314 313 313 313 312 312 311 311 311 310 310 310 310 310 310 310 310 311 311 311 311 311 311 311 311 312 312 313 313 313 314 316 318 319 320 321 322 322 321 321 320
316 316 315 314 313 312 310 309 309 308 308 309 309 308 308 308 308 308 308 308 308 308 309 309 308 308 308 307 307 307 308 308 308 309 310 312 313 313 315 318 319 319 318
316 315 314 313 312 311 310 309 308 308 307 307 307 306 306 305 305 305 305 305 306 306 306 307 307 307 307 306 306 308 310 310 310 310 311 310 309 311 312 313 314 315 315
314 313 311 310 309 308 307 306 305 305 304 303 302 303 303 303 304 304 304 304 304 305 305 305 305 305 305 306 307 307 307 307 307 308 308 309 309 309 309 309 309 310 313
311 310 308 307 306 305 304 302 301 302 304 306 307 307 307 307 306 305 305 306 306 306 305 305 305 306 306 306 305 305 306 307 308 307 306 306 306 307 307 307 308 309 310
309 308 306 304 302 301 301 304 306 307 307 307 305 305 304 304 303 303 303 303 302 303 303 303 303 303 304 304 304 304 305 306 306 306 305 305 305 306 306 306 308 309 309
306 304 301 300 302 305 306 306 305 303 303 302 303 302 301 301 301 301 300 300 301 301 303 304 305 304 303 302 301 302 302 304 304 304 304 304 305 307 307 308 307 305 306
301 300 302 304 305 305 303 302 302 302 301 301 300 300 300 299 299 298 298 298 298 297 298 299 299 299 299 300 300 301 302 303 303 303 302 302 303 305 307 309 310 310 309
301 303 305 305 303 303 302 301 300 299 300 299 300 300 301 300 300 300 299 299 297 297 297 297 298 299 299 300 301 302 302 302 302 302 302 302 302 303 306 309 309 308 308
304 305 304 303 302 301 300 299 299 300 300 300 300 301 302 303 302 302 301 300 299 299 298 297 299 300 300 301 302 302 302 302 302 303 303 303 303 304 305 306 307 306 306
304 303 302 302 301 299 299 299 300 301 300 301 301 302 303 304 304 304 303 301 301 300 300 302 304 304 304 304 304 305 304 304 304 305 306 307 306 306 306 306 306 305 305
303 302 302 301 299 299 299 300 300 301 301 302 302 302 303 303 303 305 305 304 305 305 305 305 305 305 306 307 308 308 308 309 309 309 308 309 309 309 309 309 308 306 306
302 302 302 300 299 298 299 300 300 301 301 302 302 302 302 303 304 306 305 306 306 305 306 306 307 307 308 310 311 311 310 309 310 310 310 310 310 310 310 310 307 306 306
302 302 301 299 298 298 298 299 300 302 302 304 304 303 303 305 306 306 307 307 307 307 307 308 309 310 313 314 315 315 315 316 315 313 311 312 311 310 310 310 307 307 308
302 302 300 299 298 298 299 298 299 301 301 303 304 303 304 305 305 306 306 305 307 308 309 309 313 314 315 315 316 316 316 315 313 312 314 313 310 312 311 311 308 308 309
303 302 301 300 299 299 299 299 300 300 300 302 304 304 305 306 306 306 306 307 308 310 313 314 312 312 313 315 316 316 316 313 313 314 314 314 312 312 311 311 310 310 312
301 301 302 301 300 299 299 299 300 300 301 302 302 303 305 307 308 309 309 310 311 312 313 313 312 314 316 316 316 315 317 314 312 313 313 313 313 313 313 312 312 311 311
301 301 301 300 300 299 298 299 298 300 301 302 302 302 303 306 308 308 310 312 311 310 311 312 315 317 318 318 318 318 316 316 316 313 313 313 313 313 313 313 313 313 314
301 301 300 300 298 296 296 297 298 300 301 302 303 303 305 307 308 307 310 312 310 309 311 311 315 315 315 318 318 318 317 316 316 316 315 313 313 313 313 313 313 314 315
300 299 299 299 298 298 297 297 297 299 301 302 303 304 305 306 307 306 308 310 309 310 312 314 313 314 315 315 317 318 318 317 316 315 316 317 317 316 315 315 316 316 315
298 298 298 297 298 298 299 299 299 300 301 303 304 305 304 304 306 306 307 309 310 310 312 315 314 313 315 315 315 315 315 318 318 316 316 316 317 318 318 316 317 317 318
297 296 296 296 297 298 298 299 299 299 300 301 303 304 304 304 305 306 307 308 309 309 311 312 312 311 312 314 315 315 315 314 314 316 318 318 318 319 319 319 318 318 318
295 295 295 296 297 297 297 297 298 298 299 299 299 301 302 303 303 304 306 306 308 309 309 310 311 313 313 312 311 312 314 315 314 313 312 313 315 316 317 317 317 315 315
Wind_Speed
18 15 11 10 7 6 5 5 6 7 8 11 12 12 14 15 17 19 21 23 23 24 25 27 27 27 28 32 32 32 32 32 37 39 36 33 33 32 34 33 30 30 32
13 10 10 8 8 10 10 11 12 11 11 12 13 14 14 15 17 17 19 21 24 26 26 26 27 26 28 28 29 33 34 37 38 42 41 37 35 35 35 36 35 34 33
9 9 12 14 14 15 16 17 19 20 21 22 22 22 22 22 23 22 23 23 24 25 26 26 27 28 28 28 28 30 30 31 31 35 38 36 34 34 37 38 39 39 35
12 15 15 17 18 19 20 20 21 21 22 22 22 22 23 24 25 26 26 27 28 28 29 29 29 30 31 32 32 33 31 32 29 30 33 34 33 33 34 36 39 38 39
13 14 18 19 20 23 24 23 24 25 26 27 28 28 28 29 30 30 30 31 32 33 33 34 35 37 37 36 35 35 34 35 35 36 38 37 37 34 32 31 30 30 32
12 14 15 17 20 22 24 25 26 27 28 29 30 32 34 34 34 35 35 37 37 38 39 38 38 37 37 37 37 36 35 33 32 32 33 37 40 39 37 31 30 33 37
10 11 14 17 20 22 24 26 29 32 34 35 36 36 37 37 37 38 38 40 42 42 43 43 42 41 40 41 43 42 42 40 41 42 44 44 45 45 44 44 44 40 37
15 18 21 24 27 30 33 35 37 38 38 37 35 33 32 30 29 28 29 30 30 31 31 32 33 32 30 28 28 28 28 29 31 33 34 35 37 38 37 37 36 34 33
22 25 28 31 33 35 36 36 36 33 30 28 26 26 27 27 24 22 22 24 24 23 21 21 22 23 23 23 25 27 27 28 27 28 27 28 30 32 33 33 32 31 35
26 28 31 32 32 32 29 27 26 24 23 24 23 23 23 24 21 21 20 21 23 24 24 24 25 26 28 27 25 26 28 27 25 25 25 25 24 25 26 28 32 39 37
28 29 29 28 26 23 22 22 23 23 23 24 23 22 22 22 21 19 17 18 21 22 24 26 27 27 23 22 22 24 27 25 27 29 30 31 29 27 24 22 22 22 28
27 27 24 21 18 18 20 20 22 22 19 21 24 27 24 23 22 21 19 18 17 20 24 26 25 23 26 25 25 22 22 23 27 29 32 34 33 29 25 24 23 20 18
24 21 17 13 15 16 18 20 17 19 22 26 28 27 27 25 23 22 20 18 18 21 24 25 24 24 25 27 26 26 25 29 31 32 33 33 32 26 21 23 25 24 23
16 13 11 11 14 17 17 15 17 20 22 23 22 25 24 28 26 28 25 22 18 16 16 15 15 18 19 22 23 23 25 28 32 33 30 28 25 24 22 21 20 19 19
12 11 12 14 16 15 13 14 16 16 18 20 20 23 26 25 26 24 21 21 22 20 20 21 25 26 27 26 25 26 27 30 32 29 28 27 25 22 20 18 17 16 22
11 12 14 14 13 13 10 14 12 12 13 16 17 19 22 23 24 23 22 20 20 21 23 26 28 29 30 30 27 28 22 24 26 26 29 27 26 22 19 14 14 18 21
11 11 12 10 11 12 13 17 20 14 17 16 17 18 15 16 18 20 21 20 18 22 25 26 29 28 23 26 31 34 29 29 24 20 26 28 19 17 15 13 14 15 17
9 10 12 10 9 10 13 15 15 18 23 24 22 23 16 14 17 17 22 24 21 22 25 27 22 24 27 28 28 31 29 20 16 14 10 16 24 22 14 14 13 13 13
8 10 11 11 9 6 10 13 15 18 21 22 25 23 21 18 17 18 17 18 23 25 27 22 29 33 29 25 24 24 25 28 20 18 13 9 11 13 13 14 13 12 7
8 10 11 11 10 7 8 12 16 17 18 20 23 26 26 23 21 20 20 26 30 30 26 29 32 27 25 28 27 22 26 30 27 23 23 22 19 15 11 12 12 9 7
7 9 9 9 9 10 7 9 13 15 16 19 20 21 20 20 22 23 24 27 29 31 32 33 31 34 28 23 22 25 24 28 27 23 17 16 15 14 14 13 11 9 8
7 9 8 8 9 10 8 9 12 13 16 18 20 19 18 20 20 21 22 24 25 26 27 31 30 31 34 36 28 27 25 23 25 22 19 18 17 15 14 14 13 9 8
6 6 5 6 8 9 9 10 11 14 16 18 20 21 21 22 22 21 23 22 23 24 26 29 33 33 33 33 33 34 26 18 20 23 18 16 18 18 16 13 10 9 4
6 6 7 8 9 10 12 13 13 15 16 17 19 20 22 23 23 22 22 21 21 22 23 23 25 27 28 28 29 30 31 31 23 13 14 16 15 14 12 9 5 3 4
10 12 12 12 12 13 14 15 17 18 19 19 18 18 19 22 23 23 24 24 25 24 22 20 19 20 20 21 22 22 22 22 23 23 19 11 9 9 8 9 9 9 9
16 16 17 17 17 17 18 19 20 20 20 21 21 21 21 22 23 24 25 26 25 24 23 22 21 21 20 18 16 15 15 16 17 17 16 14 13 12 10 8 7 8 7
Wind_Direction
114 113 107 93 65 31 18 1 338 328 311 301 289 293 302 304 290 269 256 251 253 256 256 259 259 262 266 258 265 268 268 271 275 279 279 278 275 278 280 281 279 277 272
88 67 42 19 359 345 343 337 328 320 311 303 304 303 298 296 294 287 283 279 272 272 270 271 274 266 268 274 271 271 270 271 272 277 283 282 281 280 280 277 279 276 277
67 23 353 340 334 331 328 326 324 324 322 317 312 307 302 301 298 296 292 288 288 283 284 283 283 281 280 278 277 276 274 272 272 275 278 280 279 275 276 278 279 279 279
9 358 350 340 334 332 328 323 320 320 317 314 313 312 309 306 302 299 296 293 290 288 287 285 284 283 282 281 279 279 278 276 275 277 278 280 280 278 274 273 275 277 280
359 350 346 341 332 328 323 319 316 311 308 306 305 302 301 299 297 296 293 290 286 284 282 282 283 283 284 286 287 286 283 280 278 276 275 276 276 276 273 277 273 275 275
354 344 337 329 325 323 318 315 311 308 305 302 299 298 297 296 294 292 290 287 285 284 284 283 282 282 282 282 280 277 276 277 277 273 272 274 274 274 274 270 268 270 272
341 334 327 320 317 315 313 311 309 308 307 305 304 301 297 294 291 288 285 283 282 282 281 282 283 283 285 283 280 277 274 271 267 267 268 268 270 271 273 275 274 268 265
336 330 325 322 319 319 317 316 315 314 315 314 313 313 310 309 306 302 296 291 291 291 289 287 285 286 285 285 284 283 281 276 272 266 264 266 265 266 267 270 271 270 268
328 324 320 318 318 318 317 316 316 317 319 319 324 326 323 321 321 315 309 305 304 304 301 296 294 293 292 289 285 283 280 278 279 275 270 267 265 265 263 262 259 258 258
326 324 322 321 320 321 323 327 329 332 334 331 335 334 331 327 325 317 312 307 303 303 299 294 288 290 296 296 282 278 277 277 280 281 278 273 267 267 263 261 259 250 252
324 324 325 327 330 335 341 342 346 341 338 341 346 347 344 345 342 340 329 313 311 310 306 299 295 300 296 292 289 278 274 280 277 275 277 277 274 266 261 256 250 247 248
326 327 331 335 341 348 348 350 345 344 355 357 356 352 353 354 349 342 330 324 324 315 307 299 297 292 293 285 281 278 278 279 276 273 273 274 272 266 256 249 252 255 257
328 332 339 349 356 353 353 355 353 356 357 352 353 354 357 358 359 351 338 323 312 306 306 305 300 298 293 289 289 284 279 274 272 271 272 271 269 271 265 257 255 261 261
339 346 350 359 4 359 359 350 352 356 352 349 352 354 353 350 1 2 353 343 340 331 328 333 329 321 316 309 300 290 283 274 270 273 274 276 274 263 258 255 252 244 243
353 354 360 4 7 3 353 1 357 357 2 359 355 346 344 340 347 351 346 342 348 344 336 330 326 325 322 317 310 298 289 283 283 280 267 265 261 263 257 253 243 228 218
358 359 1 7 4 350 0 354 18 19 6 352 338 330 325 330 339 341 342 341 339 335 330 328 326 325 322 323 319 305 299 287 284 278 267 268 263 253 251 237 220 220 221
354 356 357 358 352 357 344 4 358 11 7 360 355 350 342 340 341 345 342 346 342 334 331 330 327 330 347 351 351 350 347 338 327 292 266 258 250 249 231 219 208 208 208
352 358 347 347 349 355 338 354 351 345 347 349 359 358 351 338 331 331 333 330 337 342 333 337 358 356 357 358 358 352 356 5 352 326 285 255 236 230 200 197 195 198 204
350 348 341 339 333 332 332 333 336 336 345 345 351 0 5 357 340 342 334 339 343 1 18 12 8 6 6 4 9 24 32 18 31 43 79 126 176 177 177 185 181 189 173
353 341 346 347 342 313 310 317 326 335 351 357 358 358 359 8 16 18 15 22 33 29 28 16 19 25 35 41 38 38 41 39 44 63 83 104 123 149 160 163 168 181 183
350 351 353 352 356 359 346 345 352 1 359 4 4 9 11 16 22 27 38 45 43 34 32 36 32 40 49 47 38 40 46 50 45 51 73 88 99 114 127 137 141 149 148
337 347 356 2 19 19 21 9 10 14 8 10 13 23 28 35 34 40 51 55 54 49 49 45 49 38 46 49 43 46 50 55 59 56 65 88 100 107 115 125 136 141 132
342 358 14 31 41 39 33 26 26 26 25 20 19 27 31 36 39 42 50 50 51 49 48 50 47 46 51 53 52 47 46 50 63 64 63 82 95 93 96 129 130 136 119
38 55 64 67 64 58 52 44 42 40 38 32 30 29 29 36 39 41 50 49 51 48 47 48 45 42 52 57 55 53 50 46 53 98 81 93 87 76 90 115 116 18 33
81 84 80 75 71 67 61 54 50 47 45 43 42 39 31 31 35 36 39 36 35 36 40 44 42 39 42 44 48 50 51 51 51 54 62 56 59 45 32 41 54 47 46
88 87 85 81 76 71 66 60 56 54 52 47 46 44 39 32 29 28 28 26 23 20 20 22 25 25 20 23 29 30 33 38 44 45 51 60 63 61 65 73 69 58 57